Back to catalog

ONEWEB-0721

AliveCommunicationsPO
NORAD 56725·PAYLOAD·🇬🇧 United Kingdom

Launched May 20, 2023 from Vandenberg Space Force Base

Loading…

Next Passes (next 24 hours)

TLE

FreshSource: CelesTrak SupGP

Epoch: Sep 14, 2026, 23:03 UTC

1 56725C 23068R   26257.96094164 -.00000245  00000+0 -58909-3 0  2578
2 56725  86.6744  56.8314 0001684  94.3528 331.3075 13.22477352    18

Track ONEWEB-0721 in real time with AllMySat

Download on the App Store